[[{"header":{"parameterUnit":"m.s-1","parameterCategory":1,"la1":30.2991,"la2":30.254,"lo1":-89.0895,"lo2":-89.0444,"dy":0.0017,"dx":0.0017,"nx":28,"ny":28,"refTime":"2023-08-24T21:00:00:Z","depth":0,"parameterNumber":2,"parameterNumberName":"U-component_of_WINDS"},"data":[0,0,0,0,0,0,0,0,0,0,0,0,0,0,0,0,0,0,0,0,0,0,0,0,0,0,0,0,0,0,0,0,0,0,0,0,0,0,0,0,0,0,0,0,0,0,0,0,0,0,0,0,0,0,0,0,0,0,-0.4194,-0.4194,0,-0.4204,-0.4204,-0.4204,-0.4182,-0.4182,-0.4181,-0.418,-0.4192,-0.4193,-0.4194,0,0,0,0,0,0,0,0,0,0,0,0,0,-0.4159,-0.416,-0.4194,-0.4194,-0.4194,-0.4204,-0.4204,-0.4204,-0.4183,-0.4182,-0.4181,-0.418,-0.4191,-0.4193,-0.4194,0,0,0,0,0,0,0,0,0,0,0,0,0,-0.4172,-0.416,-0.4194,-0.4185,-0.4184,-0.4204,-0.4204,-0.4204,-0.4183,-0.4182,-0.4181,-0.418,-0.4191,-0.4192,-0.4194,-0.4224,0,0,-0.4198,-0.4199,0,0,0,0,0,0,0,0,-0.4172,-0.4174,-0.4186,-0.4185,-0.4185,-0.4191,-0.4196,-0.4211,-0.4183,-0.4183,-0.418,-0.4179,-0.4192,-0.4194,-0.4198,-0.4224,-0.4225,-0.4198,-0.4199,-0.42,-0.42,0,0,0,0,0,0,0,-0.4171,-0.4173,-0.4198,-0.4186,-0.4185,-0.4181,-0.4181,-0.4198,-0.4194,-0.4183,-0.4182,-0.4183,-0.4192,-0.4196,-0.4198,-0.4225,-0.4198,-0.42,-0.42,-0.4201,-0.4277,-0.4278,0,0,0,0,0,0,-0.4171,-0.4172,-0.4198,-0.4198,-0.4175,-0.4182,-0.4183,-0.419,-0.4193,-0.4193,-0.4184,-0.4182,-0.4195,-0.4196,-0.4198,-0.4234,-0.42,-0.4201,-0.4202,-0.4276,-0.4277,-0.4279,0,0,0,0,0,0,-0.417,-0.4173,-0.4197,-0.4185,-0.4188,-0.4184,-0.4192,-0.4191,-0.4195,-0.4194,-0.4193,-0.4189,-0.4194,-0.4196,-0.4218,-0.4234,-0.4202,-0.4203,-0.4275,-0.4276,-0.4278,-0.4306,0,0,0,0,0,0,-0.4169,-0.4173,-0.4184,-0.4185,-0.4188,-0.4216,-0.4193,-0.4192,-0.4198,-0.4195,-0.4199,-0.4198,-0.4193,-0.4216,-0.4219,-0.4236,-0.4204,-0.4273,-0.4275,-0.4277,-0.4303,-0.4308,-0.4312,0,0,0,0,0,-0.4168,-0.4191,-0.4185,-0.4188,-0.4202,-0.4217,-0.4219,-0.4212,-0.4199,-0.421,-0.4209,-0.4198,-0.4232,-0.4218,-0.4222,-0.4239,-0.4272,-0.4275,-0.4277,-0.4301,-0.4307,-0.4312,0,0,0,0,0,0,-0.4193,-0.4191,-0.4184,-0.4208,-0.4213,-0.4213,-0.4227,-0.4218,-0.4227,-0.4224,-0.4216,-0.4217,-0.424,-0.4241,-0.4226,-0.4268,-0.425,-0.4253,-0.4267,-0.4272,-0.4277,-0.4277,-0.4205,0,0,0,0,0,-0.4201,-0.4213,-0.4211,-0.4233,-0.4236,-0.4231,-0.4238,-0.4232,-0.4236,-0.4238,-0.4239,-0.4244,-0.4256,-0.4264,-0.4275,-0.4303,-0.4304,-0.4317,-0.4321,-0.4325,-0.4329,-0.4345,-0.4351,-0.4287,-0.4287,-0.4287,0,0,-0.4218,-0.4219,-0.4227,-0.4238,-0.4241,-0.4254,-0.4233,-0.4248,-0.4258,-0.4241,-0.4261,-0.4262,-0.4267,-0.4293,-0.4304,-0.4295,-0.4346,-0.4328,-0.4331,-0.4333,-0.4348,-0.4354,-0.436,-0.4289,-0.4289,-0.4288,0,0,-0.4257,-0.4258,-0.4277,-0.428,-0.4284,-0.4281,-0.4286,-0.4288,-0.4287,-0.4307,-0.4295,-0.4307,-0.4327,-0.4332,-0.4337,-0.4378,-0.4368,-0.4381,-0.4406,-0.4421,-0.4427,-0.4431,-0.4447,-0.4452,-0.4385,-0.4385,-0.4385,0,-0.4278,-0.4297,-0.4288,-0.4304,-0.4309,-0.4294,-0.4313,-0.4317,-0.4325,-0.433,-0.4319,-0.4344,-0.4347,-0.4373,-0.4383,-0.4387,-0.4393,-0.4382,-0.4426,-0.4431,-0.4435,-0.445,-0.4455,-0.4386,-0.4386,-0.4386,-0.4386,0,-0.4323,-0.4337,-0.4351,-0.4359,-0.4366,-0.4384,-0.4378,-0.4387,-0.438,-0.4378,-0.44,-0.4402,-0.4413,-0.4419,-0.4413,-0.4445,-0.444,-0.4428,-0.4409,-0.4443,-0.4457,-0.4462,-0.4389,-0.4388,-0.4388,-0.4387,0,0,-0.4378,-0.4381,-0.4386,-0.439,-0.4394,-0.4404,-0.4422,-0.4432,-0.444,-0.4446,-0.4461,-0.4479,-0.4468,-0.4474,-0.4468,-0.4482,-0.4515,-0.4468,-0.4468,-0.4478,-0.4552,-0.4562,-0.4569,-0.4508,-0.4509,-0.451,-0.4552,0,-0.4417,-0.4447,-0.4439,-0.4468,-0.4481,-0.4467,-0.4482,-0.4486,-0.4485,-0.4496,-0.4495,-0.4508,-0.4492,-0.4496,-0.4509,-0.4508,-0.453,-0.4505,-0.4523,-0.4524,-0.4524,-0.4576,-0.4586,-0.4626,-0.4557,-0.4558,-0.4559,0,-0.4467,-0.4475,-0.4505,-0.4508,-0.4513,-0.4526,-0.4536,-0.4546,-0.4551,-0.455,-0.4556,-0.4548,-0.4566,-0.4546,-0.4571,-0.4554,-0.4561,-0.4562,-0.4564,-0.4566,-0.4545,-0.4581,-0.4638,-0.4645,-0.4567,-0.4567,-0.4566,0,-0.4506,-0.4524,-0.4545,-0.4548,-0.4551,-0.4561,-0.4563,-0.4566,-0.4574,-0.4582,-0.4587,-0.4597,-0.4603,-0.4612,-0.4607,-0.4593,-0.4634,-0.4613,-0.4634,-0.4634,-0.4644,-0.4644,-0.4704,-0.4646,-0.4646,-0.4646,-0.4646,0,-0.4551,-0.4571,-0.4562,-0.4575,-0.4597,-0.4588,-0.461,-0.461,-0.4614,-0.4627,-0.4615,-0.4628,-0.462,-0.4633,-0.4629,-0.4651,-0.4653,-0.4653,-0.4652,-0.4655,-0.4655,-0.4661,-0.4658,-0.4648,-0.4647,-0.4647,-0.4647,0,-0.4599,-0.4594,-0.4616,-0.4616,-0.4617,-0.4633,-0.4634,-0.4647,-0.4644,-0.4661,-0.4665,-0.4662,-0.4676,-0.4671,-0.4687,-0.4684,-0.4713,-0.4707,-0.4711,-0.471,-0.4732,-0.473,-0.4799,-0.4808,-0.4743,-0.4743,-0.4744,0,-0.4629,-0.4644,-0.4646,-0.4654,-0.4656,-0.4669,-0.4676,-0.4668,-0.4676,-0.4683,-0.4695,-0.4708,-0.4718,-0.4741,-0.4741,-0.4753,-0.4748,-0.4772,-0.475,-0.4753,-0.4751,-0.475,-0.4752,-0.4776,-0.4777,-0.4778,-0.4778,0,-0.4683,-0.468,-0.469,-0.47,-0.4709,-0.4716,-0.4722,-0.4729,-0.4722,-0.4732,-0.4746,-0.4753,-0.4769,-0.4783,-0.4793,-0.4796,-0.4787,-0.4785,-0.479,-0.4794,-0.4796,-0.4797,-0.4724,-0.4784,-0.4783,-0.4783,-0.4782,-0.4782,-0.4724,-0.4737,-0.474,-0.4753,-0.4756,-0.4762,-0.4775,-0.4773,-0.4785,-0.4797,-0.4791,-0.4808,-0.4813,-0.4826,-0.483,-0.4844,-0.4835,-0.4843,-0.4845,-0.4848,-0.4851,-0.4793,-0.4846,-0.4845,-0.4845,-0.4845,-0.4845,0,-0.4779,-0.4781,-0.4792,-0.4801,-0.481,-0.4799,-0.4806,-0.4815,-0.483,-0.4835,-0.4845,-0.4862,-0.4875,-0.4875,-0.4887,-0.4898,-0.4894,-0.4902,-0.4902,-0.4903,-0.4857,-0.4852,-0.4905,-0.4905,-0.4905,-0.4905,-0.4905,-0.4905,-0.4809,-0.483,-0.4827,-0.4851,-0.4852,-0.4868,-0.4873,-0.4879,-0.4883,-0.4902,-0.4913,-0.4912,-0.4916,-0.4928,-0.494,-0.494,-0.4946,-0.4956,-0.4954,-0.4912,-0.4906,-0.49,-0.4895,-0.4956,-0.4957,-0.4998,-0.4999,-0.4999]},{"header":{"parameterUnit":"m.s-1","parameterCategory":1,"la1":30.2991,"la2":30.254,"lo1":-89.0895,"lo2":-89.0444,"dy":0.0017,"dx":0.0017,"nx":28,"ny":28,"refTime":"2023-08-24T21:00:00:Z","depth":0,"parameterNumber":3,"parameterNumberName":"V-component_of_WINDS"},"data":[0,0,0,0,0,0,0,0,0,0,0,0,0,0,0,0,0,0,0,0,0,0,0,0,0,0,0,0,0,0,0,0,0,0,0,0,0,0,0,0,0,0,0,0,0,0,0,0,0,0,0,0,0,0,0,0,0,0,3.1465,3.1465,0,3.1448,3.1448,3.1448,3.1399,3.1398,3.1397,3.1396,3.1379,3.138,3.138,0,0,0,0,0,0,0,0,0,0,0,0,0,3.1456,3.1457,3.1465,3.1465,3.1465,3.1448,3.1448,3.1448,3.1399,3.1398,3.1397,3.1395,3.1379,3.138,3.138,0,0,0,0,0,0,0,0,0,0,0,0,0,3.1452,3.1457,3.1465,3.1438,3.1436,3.1448,3.1448,3.1448,3.1399,3.1398,3.1396,3.1395,3.1379,3.138,3.138,3.1418,0,0,3.1383,3.1383,0,0,0,0,0,0,0,0,3.1452,3.1452,3.1443,3.144,3.1437,3.1424,3.1439,3.1438,3.14,3.1413,3.1396,3.1394,3.1395,3.1395,3.1395,3.1417,3.1416,3.1383,3.1384,3.1384,3.1384,0,0,0,0,0,0,0,3.1452,3.1453,3.1458,3.1442,3.1439,3.1427,3.1425,3.1438,3.1414,3.1412,3.1408,3.1407,3.1394,3.1394,3.1394,3.1416,3.1383,3.1384,3.1384,3.1385,3.1466,3.1468,0,0,0,0,0,0,3.1456,3.1453,3.1459,3.1458,3.1441,3.1429,3.1426,3.143,3.1413,3.1409,3.1408,3.1405,3.1394,3.1394,3.1394,3.1435,3.1384,3.1385,3.1385,3.1464,3.1466,3.1468,0,0,0,0,0,0,3.1456,3.1457,3.146,3.1455,3.1454,3.1431,3.1435,3.143,3.1431,3.1411,3.1406,3.1414,3.1393,3.1392,3.1412,3.1433,3.1385,3.1386,3.1462,3.1465,3.1467,3.1518,0,0,0,0,0,0,3.1456,3.1458,3.1471,3.1455,3.1454,3.1478,3.1437,3.1431,3.1432,3.1428,3.1414,3.141,3.1391,3.1411,3.1412,3.1434,3.1386,3.146,3.1463,3.1466,3.1514,3.1522,3.1528,0,0,0,0,0,3.1456,3.1487,3.1472,3.1473,3.1471,3.1479,3.1479,3.1456,3.1435,3.1448,3.1435,3.1411,3.1431,3.1413,3.1415,3.1436,3.1459,3.1463,3.1466,3.1511,3.152,3.1528,0,0,0,0,0,0,3.1506,3.1484,3.1468,3.1494,3.1489,3.1471,3.1487,3.1467,3.1468,3.1463,3.1435,3.1432,3.1455,3.1448,3.1428,3.1471,3.1441,3.1445,3.1475,3.1483,3.149,3.1491,3.1387,0,0,0,0,0,3.152,3.1529,3.1509,3.1534,3.1532,3.151,3.1513,3.1496,3.149,3.1487,3.1475,3.147,3.1475,3.1479,3.1483,3.1514,3.1509,3.1529,3.1537,3.1543,3.1546,3.1561,3.1569,3.148,3.148,3.148,0,0,3.155,3.1538,3.1545,3.1544,3.1538,3.1547,3.1509,3.152,3.1527,3.1489,3.1506,3.1497,3.149,3.1514,3.1525,3.1509,3.157,3.1547,3.1552,3.1552,3.1565,3.1574,3.1581,3.1483,3.1482,3.1482,0,0,3.1607,3.16,3.1619,3.1614,3.1605,3.159,3.1595,3.158,3.1573,3.159,3.1561,3.1569,3.1579,3.1574,3.1573,3.1629,3.1606,3.1631,3.1668,3.1682,3.1689,3.1695,3.1714,3.1721,3.1635,3.1635,3.1635,0,3.1644,3.1656,3.1632,3.1645,3.1644,3.1611,3.163,3.1626,3.162,3.162,3.1603,3.1614,3.1607,3.1629,3.1643,3.1644,3.1648,3.1631,3.169,3.1696,3.1701,3.1718,3.1726,3.1638,3.1638,3.1637,3.1637,0,3.1702,3.1711,3.1728,3.1721,3.1723,3.1739,3.1717,3.1722,3.1706,3.1693,3.171,3.17,3.17,3.1705,3.1689,3.1725,3.1716,3.1695,3.1664,3.1713,3.1728,3.1735,3.1642,3.1641,3.164,3.164,0,0,3.1788,3.1768,3.1775,3.1771,3.1759,3.1766,3.1781,3.1781,3.1785,3.1782,3.1793,3.1802,3.1783,3.1782,3.1765,3.1778,3.1821,3.1755,3.1755,3.1766,3.1859,3.1874,3.1882,3.1807,3.1808,3.1809,3.1859,0,3.1841,3.1864,3.1843,3.187,3.1878,3.1847,3.1859,3.1854,3.1842,3.1847,3.1835,3.1841,3.1816,3.1815,3.1826,3.1814,3.1839,3.181,3.1816,3.1817,3.1817,3.189,3.1906,3.1953,3.1866,3.1867,3.1867,0,3.1905,3.1904,3.1932,3.1918,3.192,3.1932,3.193,3.1936,3.1929,3.1919,3.1918,3.1898,3.1911,3.1883,3.19,3.1881,3.1882,3.1877,3.1878,3.1876,3.1844,3.1889,3.1968,3.1975,3.1877,3.1876,3.1876,0,3.1964,3.197,3.1987,3.1985,3.1969,3.1978,3.1972,3.1963,3.1964,3.1963,3.1964,3.1965,3.1965,3.1966,3.1946,3.1927,3.1966,3.1936,3.1958,3.1959,3.1966,3.1966,3.2045,3.1971,3.1971,3.197,3.197,0,3.2023,3.2041,3.2012,3.2023,3.2042,3.2018,3.2038,3.2028,3.2021,3.2029,3.2003,3.2011,3.1985,3.1991,3.1976,3.1992,3.1993,3.1986,3.1981,3.1987,3.1988,3.1986,3.1982,3.1972,3.1972,3.1971,3.1971,0,3.2091,3.2073,3.2089,3.2073,3.2069,3.2084,3.207,3.2079,3.2066,3.2077,3.2078,3.2058,3.2063,3.2044,3.2046,3.2036,3.206,3.2051,3.2062,3.2058,3.2081,3.2079,3.2161,3.217,3.2092,3.2093,3.2093,0,3.2129,3.2142,3.2128,3.2131,3.2126,3.2132,3.2133,3.211,3.2112,3.2105,3.2115,3.2118,3.2119,3.2129,3.2114,3.2116,3.2105,3.2134,3.2105,3.2111,3.2104,3.2103,3.2103,3.214,3.2141,3.2142,3.2142,0,3.2199,3.2189,3.2192,3.2191,3.2193,3.2192,3.2188,3.2193,3.2168,3.2172,3.2177,3.2177,3.2179,3.2182,3.2181,3.2175,3.2154,3.2152,3.2157,3.2162,3.2167,3.2163,3.2076,3.2149,3.2149,3.2148,3.2148,3.2147,3.2252,3.2262,3.2252,3.2256,3.2251,3.2249,3.2256,3.2244,3.2248,3.2247,3.2234,3.2241,3.2233,3.2229,3.2225,3.223,3.2217,3.2224,3.2226,3.2228,3.2231,3.2168,3.223,3.223,3.223,3.223,3.2229,0,3.2319,3.2311,3.2315,3.2311,3.2314,3.2295,3.229,3.2294,3.23,3.2295,3.2296,3.2301,3.2304,3.2291,3.2291,3.2298,3.2289,3.2299,3.2297,3.2296,3.2244,3.2239,3.2307,3.2307,3.2307,3.2307,3.2307,3.2307,3.2354,3.2369,3.2358,3.237,3.2363,3.2369,3.2368,3.2366,3.2361,3.2368,3.237,3.2361,3.2352,3.2352,3.2354,3.235,3.2351,3.2364,3.2357,3.2308,3.23,3.2293,3.2288,3.2365,3.2365,3.2408,3.2409,3.2409]}]]